Regional Weather Roundup
Issued by NWS Charleston, WV

Current Version | Previous Version | Text Only | Print | Product List | Glossary On
Versions: 1 2 3 4 5 6 7 8 9 10 11 12 13 14 15 16 17 18 19 20 21 22 23 24 25 26 27 28 29 30 31 32 33 34 35 36 37 38 39 40 41 42 43 44 45 46 47 48 49
000 ASUS41 KRLX 041310 RWRRLX Regional Weather Roundup National Weather Service Charleston WV 800 AM EST THU MAR 04 2021 Note: "fair" indicates few or no clouds below 12,000 feet with no significant weather and/or obstructions to visibility. WVZ003-041400- Northern Panhandle of West Virginia CITY SKY/WX TMP DP RH WIND PRES REMARKS WHEELING PTSUNNY 34 28 79 W3 30.04R $$ WVZ009-041400- Northwest West Virginia CITY SKY/WX TMP DP RH WIND PRES REMARKS PARKERSBURG SUNNY 37 30 75 NW3 30.07R $$ WVZ006-041400- Western West Virginia CITY SKY/WX TMP DP RH WIND PRES REMARKS HUNTINGTON MOSUNNY 40 30 67 NW8 30.11R $$ WVZ015-041400- West Central West Virginia CITY SKY/WX TMP DP RH WIND PRES REMARKS CHARLESTON MOSUNNY 36 33 89 CALM 30.08R $$ WVZ509-031-039-041400- North Central West Virginia CITY SKY/WX TMP DP RH WIND PRES REMARKS MORGANTOWN PTSUNNY 35 30 82 CALM 30.03R CLARKSBURG SUNNY 36 30 79 NW5 30.03R BUCKHANNON SUNNY 36 32 87 CALM 30.02R $$ WVZ515-516-025-034-042-507-041400- Southern West Virginia CITY SKY/WX TMP DP RH WIND PRES REMARKS BECKLEY SUNNY 38 30 73 NW9 30.02R LOGAN FAIR 39 32 75 CALM 30.07R PINEVILLE N/A 29 28 94 MISG 30.10R BLUEFIELD SUNNY 37 29 72 W8 30.02R LEWISBURG SUNNY 39 29 68 CALM 30.00R $$ WVZ525-526-041400- Northern Mountains of West Virginia CITY SKY/WX TMP DP RH WIND PRES REMARKS ELKINS CLOUDY 39 28 64 VRB5 30.00R $$ WVZ502-504-052-041400- Eastern Panhandle of West Virginia CITY SKY/WX TMP DP RH WIND PRES REMARKS PETERSBURG SUNNY 44 31 59 NW6 30.00R CUMBERLAND MOSUNNY 41 29 63 NW8 30.03R MARTINSBURG SUNNY 42 27 55 NW6 29.95R $$ OHZ075-083-KYZ101-041400- Southeast Ohio/Northeast Kentucky CITY SKY/WX TMP DP RH WIND PRES REMARKS ATHENS SUNNY 33 31 92 CALM 30.10R JACKSON FAIR 36 32 87 NW5 30.13R ASHLAND N/A N/A N/A N/A MISG N/A $$

USA.gov is the U.S. government's official web portal to all federal, state and local government web resources and services.